When you browse on this site, cookies collect data to enhance your experience and personalize the content and advertising you see.
Visit our Privacy Policy to learn more. By continuing to use the site, you agree to this use of cookies and data.
  • en France
  • Liste des pays
  • À 7 jours
  • Température de l'eau
  • Carte satellitaire
  • Carte météo
  • Widgets météo
  • user-avatar
    Se connecter

    Météo par heure à Mayrhofen

    Ce jour, 18 Juin, Mardi

    Heure Température Précipitation Vent Pression Humidité
    00:00 +10°C° 0.1 mm 1 m/s 619 mmHg 89%
    01:00 +10°C° 0 mm 1 m/s 619 mmHg 88%
    02:00 +9°C° 0.1 mm 1 m/s 619 mmHg 88%
    03:00 +9°C° 0.1 mm 1 m/s 619 mmHg 89%
    04:00 +9°C° 0.1 mm 1 m/s 618 mmHg 90%
    05:00 +10°C° 0 mm 1 m/s 619 mmHg 86%
    06:00 +12°C° 0 mm 1 m/s 620 mmHg 83%
    07:00 +13°C° 0 mm 0 m/s 621 mmHg 79%
    08:00 +16°C° 0.1 mm 1 m/s 621 mmHg 72%
    09:00 +18°C° 0.1 mm 1 m/s 622 mmHg 64%
    10:00 +20°C° 0.1 mm 1 m/s 622 mmHg 56%
    11:00 +21°C° 0.4 mm 1 m/s 622 mmHg 53%
    12:00 +21°C° 0.4 mm 1 m/s 622 mmHg 49%
    13:00 +22°C° 0.4 mm 1 m/s 622 mmHg 46%
    14:00 +21°C° 0.5 mm 1 m/s 622 mmHg 48%
    15:00 +21°C° 0.5 mm 1 m/s 621 mmHg 51%
    16:00 +20°C° 0.5 mm 1 m/s 621 mmHg 53%
    17:00 +19°C° 0.8 mm 1 m/s 621 mmHg 62%
    18:00 +18°C° 0.8 mm 1 m/s 620 mmHg 72%
    19:00 +16°C° 0.8 mm 1 m/s 620 mmHg 82%
    20:00 +14°C° 1.5 mm 1 m/s 619 mmHg 86%
    21:00 +13°C° 1.5 mm 1 m/s 619 mmHg 91%
    22:00 +12°C° 1.5 mm 1 m/s 619 mmHg 95%
    23:00 +11°C° 0.3 mm 1 m/s 619 mmHg 95%

    Demain, 19 Juin, Mercredi

    Heure Température Précipitation Vent Pression Humidité
    00:00 +11°C° 0.3 mm 1 m/s 618 mmHg 94%
    01:00 +9°C° 0.3 mm 0 m/s 618 mmHg 93%
    02:00 +9°C° 0.2 mm 0 m/s 618 mmHg 92%
    03:00 +9°C° 0.2 mm 0 m/s 617 mmHg 91%
    04:00 +10°C° 0.2 mm 1 m/s 617 mmHg 91%
    05:00 +11°C° 0.1 mm 1 m/s 618 mmHg 88%
    06:00 +13°C° 0.1 mm 1 m/s 618 mmHg 85%
    07:00 +14°C° 0.1 mm 1 m/s 619 mmHg 83%
    08:00 +15°C° 1 mm 1 m/s 619 mmHg 78%
    09:00 +16°C° 1 mm 1 m/s 619 mmHg 74%
    10:00 +18°C° 1 mm 1 m/s 619 mmHg 69%
    11:00 +19°C° 1.3 mm 1 m/s 620 mmHg 66%
    12:00 +19°C° 1.3 mm 1 m/s 620 mmHg 63%
    13:00 +20°C° 1.3 mm 1 m/s 620 mmHg 59%
    14:00 +19°C° 1.4 mm 1 m/s 619 mmHg 62%
    15:00 +19°C° 1.4 mm 1 m/s 619 mmHg 64%
    16:00 +18°C° 1.4 mm 1 m/s 619 mmHg 67%
    17:00 +16°C° 0.8 mm 1 m/s 619 mmHg 72%
    18:00 +16°C° 0.8 mm 1 m/s 618 mmHg 77%
    19:00 +15°C° 0.8 mm 1 m/s 618 mmHg 82%
    20:00 +13°C° 0 mm 1 m/s 618 mmHg 82%
    21:00 +12°C° 0 mm 1 m/s 618 mmHg 82%
    22:00 +11°C° 0 mm 1 m/s 617 mmHg 83%
    23:00 +10°C° 0 mm 1 m/s 617 mmHg 82%

    Après-demain, 20 Juin, Jeudi

    Heure Température Précipitation Vent Pression Humidité
    00:00 +10°C° 0 mm 1 m/s 617 mmHg 81%
    01:00 +8°C° 0 mm 0 m/s 617 mmHg 81%
    02:00 +8°C° 0 mm 0 m/s 616 mmHg 80%
    03:00 +7°C° 0 mm 0 m/s 616 mmHg 79%
    04:00 +7°C° 0 mm 0 m/s 616 mmHg 79%
    05:00 +9°C° 0 mm 0 m/s 617 mmHg 74%
    06:00 +12°C° 0 mm 0 m/s 618 mmHg 69%
    07:00 +14°C° 0 mm 0 m/s 619 mmHg 64%
    08:00 +18°C° 0 mm 1 m/s 619 mmHg 58%
    09:00 +19°C° 0 mm 1 m/s 620 mmHg 51%
    10:00 +20°C° 0 mm 2 m/s 620 mmHg 45%
    11:00 +20°C° 0.1 mm 2 m/s 620 mmHg 44%
    12:00 +21°C° 0.1 mm 2 m/s 620 mmHg 43%
    13:00 +21°C° 0.1 mm 2 m/s 620 mmHg 43%
    14:00 +20°C° 0.6 mm 2 m/s 620 mmHg 51%
    15:00 +19°C° 0.6 mm 2 m/s 619 mmHg 59%
    16:00 +17°C° 0.6 mm 2 m/s 619 mmHg 67%
    17:00 +16°C° 1 mm 2 m/s 618 mmHg 75%
    18:00 +15°C° 1 mm 2 m/s 618 mmHg 83%
    19:00 +14°C° 1 mm 2 m/s 618 mmHg 91%
    20:00 +13°C° 1.1 mm 1 m/s 618 mmHg 93%
    21:00 +12°C° 1.1 mm 1 m/s 618 mmHg 95%
    22:00 +12°C° 1.1 mm 1 m/s 618 mmHg 97%
    23:00 +11°C° 0.4 mm 1 m/s 618 mmHg 97%

    21 Juin, Vendredi

    Heure Température Précipitation Vent Pression Humidité
    00:00 +11°C° 0.4 mm 1 m/s 618 mmHg 97%
    01:00 +11°C° 0.4 mm 1 m/s 618 mmHg 96%
    02:00 +11°C° 0.1 mm 1 m/s 618 mmHg 95%
    03:00 +11°C° 0.1 mm 1 m/s 618 mmHg 95%
    04:00 +11°C° 0.1 mm 1 m/s 618 mmHg 94%
    05:00 +11°C° 0.4 mm 1 m/s 618 mmHg 94%
    06:00 +11°C° 0.4 mm 1 m/s 618 mmHg 93%
    07:00 +11°C° 0.4 mm 1 m/s 618 mmHg 93%
    08:00 +11°C° 0.6 mm 1 m/s 618 mmHg 92%
    09:00 +11°C° 0.6 mm 1 m/s 618 mmHg 91%
    10:00 +11°C° 0.6 mm 1 m/s 618 mmHg 90%
    11:00 +12°C° 0.1 mm 1 m/s 619 mmHg 87%
    12:00 +13°C° 0.1 mm 1 m/s 619 mmHg 83%
    13:00 +13°C° 0.1 mm 1 m/s 619 mmHg 80%
    14:00 +15°C° 0.3 mm 1 m/s 619 mmHg 74%
    15:00 +16°C° 0.3 mm 1 m/s 619 mmHg 69%
    16:00 +17°C° 0.3 mm 2 m/s 620 mmHg 64%
    17:00 +16°C° 0.9 mm 2 m/s 620 mmHg 72%
    18:00 +15°C° 0.9 mm 1 m/s 619 mmHg 80%
    19:00 +13°C° 0.9 mm 1 m/s 619 mmHg 89%
    20:00 +13°C° 1.1 mm 1 m/s 619 mmHg 91%
    21:00 +12°C° 1.1 mm 1 m/s 619 mmHg 93%
    22:00 +11°C° 1.1 mm 1 m/s 619 mmHg 95%
    23:00 +11°C° 0.8 mm 1 m/s 619 mmHg 95%

    22 Juin, Samedi

    Heure Température Précipitation Vent Pression Humidité
    00:00 +10°C° 0.8 mm 1 m/s 619 mmHg 95%
    01:00 +10°C° 0.8 mm 1 m/s 619 mmHg 96%
    02:00 +10°C° 0.1 mm 1 m/s 619 mmHg 94%
    03:00 +9°C° 0.1 mm 0 m/s 618 mmHg 93%
    04:00 +9°C° 0.1 mm 0 m/s 618 mmHg 92%
    05:00 +10°C° 0 mm 0 m/s 619 mmHg 89%
    06:00 +11°C° 0 mm 0 m/s 619 mmHg 86%
    07:00 +11°C° 0 mm 0 m/s 620 mmHg 82%
    08:00 +14°C° 0.4 mm 1 m/s 620 mmHg 77%
    09:00 +15°C° 0.4 mm 1 m/s 620 mmHg 72%
    10:00 +18°C° 0.4 mm 1 m/s 621 mmHg 67%
    11:00 +18°C° 1.3 mm 1 m/s 620 mmHg 69%
    12:00 +18°C° 1.3 mm 1 m/s 620 mmHg 72%
    13:00 +18°C° 1.3 mm 1 m/s 620 mmHg 75%
    14:00 +16°C° 2 mm 1 m/s 620 mmHg 77%
    15:00 +16°C° 2 mm 1 m/s 619 mmHg 80%
    16:00 +15°C° 2 mm 1 m/s 619 mmHg 82%
    17:00 +15°C° 1.4 mm 1 m/s 619 mmHg 85%
    18:00 +14°C° 1.4 mm 1 m/s 619 mmHg 87%
    19:00 +13°C° 1.4 mm 0 m/s 619 mmHg 89%
    20:00 +12°C° 0.6 mm 1 m/s 619 mmHg 91%
    21:00 +11°C° 0.6 mm 1 m/s 619 mmHg 93%
    22:00 +10°C° 0.6 mm 1 m/s 619 mmHg 95%
    23:00 +10°C° 0.2 mm 1 m/s 619 mmHg 96%

    23 Juin, Dimanche

    Heure Température Précipitation Vent Pression Humidité
    00:00 +10°C° 0.2 mm 1 m/s 619 mmHg 96%
    01:00 +10°C° 0.2 mm 1 m/s 619 mmHg 97%
    02:00 +9°C° 0 mm 1 m/s 619 mmHg 97%
    03:00 +9°C° 0 mm 1 m/s 619 mmHg 97%
    04:00 +8°C° 0 mm 1 m/s 618 mmHg 96%
    05:00 +9°C° 0 mm 0 m/s 619 mmHg 92%
    06:00 +10°C° 0 mm 0 m/s 620 mmHg 88%
    07:00 +12°C° 0 mm 0 m/s 621 mmHg 83%
    08:00 +14°C° 0 mm 0 m/s 622 mmHg 74%
    09:00 +18°C° 0 mm 1 m/s 622 mmHg 64%
    10:00 +20°C° 0 mm 1 m/s 623 mmHg 55%
    11:00 +21°C° 0.1 mm 1 m/s 623 mmHg 52%
    12:00 +21°C° 0.1 mm 1 m/s 623 mmHg 49%
    13:00 +22°C° 0.1 mm 1 m/s 624 mmHg 45%
    14:00 +22°C° 0.1 mm 1 m/s 623 mmHg 46%
    15:00 +22°C° 0.1 mm 1 m/s 623 mmHg 47%
    16:00 +22°C° 0.1 mm 1 m/s 623 mmHg 48%
    17:00 +21°C° 0.1 mm 1 m/s 623 mmHg 56%
    18:00 +19°C° 0.1 mm 1 m/s 623 mmHg 65%
    19:00 +18°C° 0.1 mm 1 m/s 623 mmHg 73%
    20:00 +15°C° 0 mm 1 m/s 622 mmHg 79%
    21:00 +13°C° 0 mm 1 m/s 622 mmHg 85%
    22:00 +10°C° 0 mm 0 m/s 622 mmHg 91%
    23:00 +11°C° 0 mm 1 m/s 622 mmHg 90%
    Voir plus